[[{"header":{"parameterUnit":"m.s-1","parameterCategory":1,"la1":30.2991,"la2":30.254,"lo1":-89.0895,"lo2":-89.0444,"dy":0.0017,"dx":0.0017,"nx":28,"ny":28,"refTime":"2025-09-01T03:00:00:Z","depth":0,"parameterNumber":2,"parameterNumberName":"U-component_of_WINDS"},"data":[0,0,0,0,0,0,0,0,0,0,0,0,0,0,0,0,0,0,0,0,0,0,0,0,0,0,0,0,0,0,0,0,0,0,0,0,0,0,0,0,0,0,0,0,0,0,0,0,0,0,0,0,0,0,0,0,0,0,-2.1885,-2.1885,0,-2.1854,-2.1854,-2.1853,-2.1751,-2.1749,-2.1746,-2.1744,-2.1715,-2.1717,-2.1718,0,0,0,0,0,0,0,0,0,0,0,0,0,-2.186,-2.1861,-2.1885,-2.1885,-2.1884,-2.1854,-2.1854,-2.1853,-2.1751,-2.1749,-2.1746,-2.1743,-2.1715,-2.1716,-2.1718,0,0,0,0,0,0,0,0,0,0,0,0,0,-2.1854,-2.1861,-2.1885,-2.183,-2.1825,-2.1854,-2.1854,-2.1853,-2.1752,-2.1749,-2.1745,-2.1742,-2.1714,-2.1716,-2.1718,-2.18,0,0,-2.1725,-2.1725,0,0,0,0,0,0,0,0,-2.1855,-2.1855,-2.1838,-2.1834,-2.1828,-2.1803,-2.1834,-2.1835,-2.1753,-2.178,-2.1744,-2.174,-2.1747,-2.1747,-2.1748,-2.1798,-2.1797,-2.1725,-2.1726,-2.1727,-2.1727,0,0,0,0,0,0,0,-2.1855,-2.1856,-2.1873,-2.1838,-2.1832,-2.1808,-2.1803,-2.1834,-2.1783,-2.1777,-2.177,-2.1767,-2.1744,-2.1747,-2.1747,-2.1797,-2.1725,-2.1727,-2.1728,-2.1729,-2.1915,-2.1918,0,0,0,0,0,0,-2.1863,-2.1857,-2.1874,-2.1872,-2.1833,-2.1811,-2.1806,-2.1814,-2.1783,-2.1774,-2.177,-2.1762,-2.1745,-2.1745,-2.1745,-2.184,-2.1727,-2.1729,-2.173,-2.1911,-2.1915,-2.1919,0,0,0,0,0,0,-2.1863,-2.1866,-2.1875,-2.1863,-2.1862,-2.1815,-2.1826,-2.1816,-2.1818,-2.1777,-2.1768,-2.1782,-2.1742,-2.1743,-2.1787,-2.1838,-2.173,-2.1732,-2.1907,-2.1912,-2.1917,-2.203,0,0,0,0,0,0,-2.1863,-2.1866,-2.1896,-2.1864,-2.1863,-2.1917,-2.1829,-2.1817,-2.1822,-2.1811,-2.1786,-2.1779,-2.1739,-2.1785,-2.1789,-2.1838,-2.1733,-2.1902,-2.1909,-2.1916,-2.2021,-2.2038,-2.2053,0,0,0,0,0,-2.1862,-2.1929,-2.1898,-2.19,-2.1899,-2.192,-2.1919,-2.1872,-2.1826,-2.1856,-2.183,-2.1779,-2.1831,-2.179,-2.1795,-2.1845,-2.1898,-2.1907,-2.1915,-2.2014,-2.2035,-2.2052,0,0,0,0,0,0,-2.1968,-2.1923,-2.1889,-2.1946,-2.1938,-2.1902,-2.1938,-2.1895,-2.19,-2.189,-2.1832,-2.1828,-2.1881,-2.1867,-2.1822,-2.1923,-2.1857,-2.1866,-2.193,-2.195,-2.1965,-2.1968,-2.1735,0,0,0,0,0,-2.1998,-2.2018,-2.1978,-2.2033,-2.203,-2.1986,-2.1993,-2.1958,-2.1946,-2.1942,-2.1919,-2.1912,-2.1926,-2.1937,-2.1948,-2.2019,-2.2013,-2.2056,-2.2072,-2.2085,-2.2094,-2.2132,-2.2151,-2.1947,-2.1947,-2.1947,0,0,-2.206,-2.2038,-2.2054,-2.2054,-2.2043,-2.2066,-2.1983,-2.2011,-2.2028,-2.1947,-2.1988,-2.1971,-2.1959,-2.2017,-2.2042,-2.2007,-2.2149,-2.2095,-2.2106,-2.2108,-2.2143,-2.2162,-2.218,-2.1953,-2.1951,-2.1951,0,0,-2.2186,-2.217,-2.2215,-2.2206,-2.219,-2.216,-2.2172,-2.2143,-2.2129,-2.2169,-2.2109,-2.213,-2.2155,-2.215,-2.215,-2.2276,-2.223,-2.2281,-2.2364,-2.2402,-2.2418,-2.2432,-2.2479,-2.2496,-2.229,-2.2291,-2.2291,0,-2.2265,-2.2296,-2.2244,-2.2276,-2.2278,-2.2206,-2.2252,-2.2246,-2.2235,-2.2239,-2.2201,-2.2233,-2.2219,-2.2276,-2.2307,-2.2309,-2.2322,-2.2284,-2.242,-2.2433,-2.2446,-2.2489,-2.2507,-2.2297,-2.2296,-2.2296,-2.2295,0,-2.2396,-2.2419,-2.2457,-2.2448,-2.2455,-2.2494,-2.2449,-2.2462,-2.2427,-2.2402,-2.2445,-2.2426,-2.2433,-2.2444,-2.241,-2.2497,-2.2476,-2.243,-2.2362,-2.2473,-2.2513,-2.2529,-2.2306,-2.2304,-2.2302,-2.23,0,0,-2.2586,-2.2549,-2.2564,-2.256,-2.2538,-2.2555,-2.2592,-2.2598,-2.2612,-2.2607,-2.2638,-2.2662,-2.262,-2.2621,-2.2585,-2.2618,-2.2721,-2.2568,-2.2567,-2.2598,-2.2819,-2.2855,-2.2875,-2.2691,-2.2694,-2.2696,-2.282,0,-2.2706,-2.2765,-2.272,-2.2788,-2.281,-2.2742,-2.2774,-2.2766,-2.2744,-2.276,-2.2736,-2.2755,-2.2696,-2.2696,-2.2726,-2.2702,-2.2765,-2.2693,-2.272,-2.2722,-2.2726,-2.2895,-2.2933,-2.3051,-2.2835,-2.2838,-2.284,0,-2.2853,-2.2855,-2.2926,-2.2901,-2.2908,-2.2938,-2.2941,-2.2957,-2.2947,-2.2928,-2.2931,-2.2887,-2.2923,-2.2856,-2.2906,-2.2858,-2.2867,-2.2857,-2.2861,-2.2862,-2.2788,-2.2902,-2.3087,-2.3105,-2.2864,-2.2862,-2.286,0,-2.2986,-2.3007,-2.3052,-2.3051,-2.3023,-2.3046,-2.3035,-2.3021,-2.3028,-2.3032,-2.3036,-2.3044,-2.3049,-2.3057,-2.3017,-2.2972,-2.3073,-2.3002,-2.3061,-2.3062,-2.3085,-2.3085,-2.3275,-2.309,-2.309,-2.3089,-2.3089,0,-2.3125,-2.3171,-2.3112,-2.314,-2.319,-2.3138,-2.319,-2.3173,-2.3161,-2.3186,-2.3128,-2.3153,-2.3099,-2.3119,-2.3088,-2.3135,-2.3137,-2.3125,-2.3117,-2.3131,-2.3133,-2.3136,-2.3127,-2.3094,-2.3093,-2.3092,-2.3091,0,-2.3282,-2.3244,-2.3289,-2.3259,-2.3253,-2.3292,-2.3267,-2.3293,-2.3267,-2.3299,-2.3304,-2.3265,-2.3285,-2.3246,-2.3262,-2.3241,-2.3308,-2.3286,-2.3312,-2.3306,-2.3366,-2.3362,-2.3567,-2.3592,-2.339,-2.3392,-2.3393,0,-2.3374,-2.3407,-2.3382,-2.3394,-2.3387,-2.3407,-2.3414,-2.3366,-2.3376,-2.3368,-2.3395,-2.3411,-2.342,-2.3456,-2.343,-2.3442,-2.3421,-2.3492,-2.3423,-2.3436,-2.3424,-2.3423,-2.3427,-2.3507,-2.3509,-2.3511,-2.3513,0,-2.354,-2.352,-2.3532,-2.3539,-2.355,-2.3553,-2.3552,-2.3565,-2.3514,-2.3529,-2.3549,-2.3557,-2.3573,-2.359,-2.3596,-2.3586,-2.3543,-2.3535,-2.3549,-2.3564,-2.3578,-2.3573,-2.3352,-2.3531,-2.3529,-2.3527,-2.3527,-2.3526,-2.3668,-2.3696,-2.3682,-2.3699,-2.3693,-2.3694,-2.3717,-2.3695,-2.371,-2.3719,-2.369,-2.3717,-2.3708,-2.3712,-2.3708,-2.3729,-2.3698,-2.3718,-2.3724,-2.373,-2.374,-2.3574,-2.373,-2.373,-2.3729,-2.3729,-2.3728,0,-2.3833,-2.3821,-2.3837,-2.3837,-2.3851,-2.3807,-2.3805,-2.3819,-2.3844,-2.3838,-2.3849,-2.3874,-2.389,-2.3866,-2.3879,-2.3901,-2.3882,-2.3907,-2.3905,-2.3904,-2.3767,-2.3754,-2.3922,-2.3922,-2.3922,-2.3922,-2.3922,-2.3922,-2.392,-2.3965,-2.3944,-2.3987,-2.3975,-2.4,-2.4003,-2.4004,-2.4,-2.4029,-2.4043,-2.4027,-2.4015,-2.4026,-2.4041,-2.4033,-2.4041,-2.4074,-2.406,-2.3932,-2.3913,-2.3895,-2.3883,-2.4076,-2.4076,-2.4195,-2.4196,-2.4197]},{"header":{"parameterUnit":"m.s-1","parameterCategory":1,"la1":30.2991,"la2":30.254,"lo1":-89.0895,"lo2":-89.0444,"dy":0.0017,"dx":0.0017,"nx":28,"ny":28,"refTime":"2025-09-01T03:00:00:Z","depth":0,"parameterNumber":3,"parameterNumberName":"V-component_of_WINDS"},"data":[0,0,0,0,0,0,0,0,0,0,0,0,0,0,0,0,0,0,0,0,0,0,0,0,0,0,0,0,0,0,0,0,0,0,0,0,0,0,0,0,0,0,0,0,0,0,0,0,0,0,0,0,0,0,0,0,0,0,0.3948,0.3947,0,0.3887,0.3886,0.3886,0.3882,0.3883,0.3884,0.3884,0.3817,0.3814,0.3812,0,0,0,0,0,0,0,0,0,0,0,0,0,0.4057,0.4055,0.3948,0.3947,0.3947,0.3887,0.3886,0.3885,0.3882,0.3883,0.3884,0.3885,0.3817,0.3815,0.3812,0,0,0,0,0,0,0,0,0,0,0,0,0,0.4004,0.4054,0.3948,0.3938,0.3936,0.3887,0.3886,0.3885,0.3882,0.3883,0.3884,0.3885,0.3818,0.3815,0.3811,0.3767,0,0,0.38,0.3798,0,0,0,0,0,0,0,0,0.4007,0.4,0.394,0.3939,0.3937,0.3894,0.39,0.3845,0.3882,0.3903,0.3885,0.3886,0.3841,0.3835,0.3821,0.3763,0.376,0.3799,0.3797,0.3796,0.3795,0,0,0,0,0,0,0,0.4011,0.4002,0.3924,0.3939,0.3937,0.3935,0.3928,0.3889,0.3866,0.3901,0.39,0.3894,0.384,0.3825,0.382,0.3759,0.38,0.3796,0.3794,0.3793,0.366,0.3658,0,0,0,0,0,0,0.4017,0.4006,0.3926,0.3922,0.3975,0.3932,0.3925,0.3906,0.3867,0.3862,0.3893,0.3894,0.3831,0.3824,0.3817,0.3761,0.3796,0.3792,0.379,0.3661,0.3659,0.3658,0,0,0,0,0,0,0.4019,0.401,0.3928,0.3964,0.3953,0.3929,0.3908,0.3904,0.3889,0.3861,0.3856,0.3882,0.3831,0.3823,0.3779,0.3759,0.379,0.3787,0.3662,0.366,0.3659,0.3648,0,0,0,0,0,0,0.4022,0.4011,0.3995,0.3963,0.3951,0.3892,0.3907,0.3902,0.3884,0.3884,0.3849,0.3844,0.3832,0.3785,0.3775,0.3754,0.3784,0.3664,0.3662,0.3659,0.365,0.3646,0.3643,0,0,0,0,0,0.4026,0.3994,0.3994,0.3984,0.3931,0.3891,0.3884,0.3872,0.3882,0.3865,0.3846,0.3845,0.3763,0.378,0.377,0.3747,0.3665,0.3662,0.3659,0.3652,0.3647,0.3643,0,0,0,0,0,0,0.4021,0.3989,0.3989,0.3946,0.3922,0.3891,0.3869,0.3867,0.3838,0.384,0.3824,0.3816,0.3772,0.3756,0.3776,0.3701,0.3715,0.371,0.3713,0.3708,0.3704,0.3708,0.3781,0,0,0,0,0,0.4016,0.3988,0.3961,0.3925,0.3913,0.3893,0.3875,0.3868,0.3841,0.383,0.3809,0.3781,0.3749,0.3728,0.3697,0.3649,0.364,0.3628,0.3624,0.3621,0.3616,0.3587,0.3581,0.3648,0.3648,0.3648,0,0,0.4002,0.3982,0.3965,0.3923,0.3903,0.3873,0.3884,0.3852,0.3828,0.3825,0.3782,0.3766,0.3734,0.3688,0.3666,0.3672,0.3596,0.3617,0.3615,0.3612,0.3584,0.3577,0.3571,0.3646,0.3647,0.3647,0,0,0.3963,0.3945,0.3913,0.3893,0.3864,0.3851,0.3843,0.3812,0.3801,0.3759,0.3756,0.3727,0.3672,0.3649,0.3631,0.3583,0.358,0.3573,0.3552,0.3524,0.3519,0.3514,0.3494,0.3488,0.3568,0.3568,0.3568,0,0.3949,0.3905,0.3896,0.3863,0.3844,0.3842,0.3807,0.3788,0.3749,0.3735,0.3744,0.3674,0.3653,0.36,0.3589,0.3574,0.3563,0.3575,0.3521,0.3516,0.3511,0.3492,0.3485,0.3568,0.3568,0.3568,0.3568,0,0.3889,0.3858,0.3835,0.3799,0.3778,0.3745,0.3728,0.3707,0.3702,0.3688,0.3644,0.3618,0.3581,0.3569,0.3563,0.3515,0.3519,0.3524,0.3538,0.3504,0.3486,0.3479,0.3566,0.3567,0.3567,0.3567,0,0,0.3843,0.3803,0.3794,0.3777,0.3745,0.372,0.3686,0.3651,0.3632,0.3606,0.3575,0.353,0.3534,0.3513,0.3504,0.348,0.3441,0.3488,0.3487,0.3478,0.3383,0.3378,0.337,0.344,0.3439,0.3438,0.3385,0,0.3797,0.3738,0.3729,0.3676,0.3646,0.3644,0.3614,0.3589,0.3575,0.3546,0.353,0.3497,0.3507,0.3494,0.347,0.3451,0.3421,0.3455,0.3409,0.3407,0.3414,0.336,0.3354,0.3306,0.3378,0.3377,0.3376,0,0.3736,0.3709,0.3654,0.3625,0.3612,0.3585,0.3552,0.3526,0.3497,0.3489,0.3465,0.346,0.3422,0.344,0.3386,0.3409,0.339,0.3378,0.3376,0.3368,0.3388,0.3349,0.329,0.3282,0.3365,0.3366,0.3367,0,0.3705,0.3655,0.3615,0.3601,0.3566,0.3547,0.3532,0.3505,0.3485,0.3455,0.3441,0.3408,0.3389,0.3362,0.3347,0.3361,0.3294,0.331,0.3283,0.3283,0.3266,0.3267,0.3201,0.3259,0.3259,0.3259,0.3259,0,0.3653,0.3619,0.36,0.3575,0.3536,0.3525,0.3486,0.347,0.3446,0.3417,0.3413,0.3385,0.3368,0.3337,0.3325,0.3281,0.3274,0.3263,0.326,0.3262,0.3263,0.3247,0.3249,0.3257,0.3258,0.3258,0.3258,0,0.361,0.3597,0.3553,0.3524,0.3516,0.3488,0.3463,0.3437,0.3424,0.3387,0.3377,0.3355,0.3319,0.3302,0.3256,0.3248,0.3197,0.3198,0.3207,0.3205,0.3178,0.3179,0.3096,0.3084,0.3153,0.3152,0.3152,0,0.3577,0.3551,0.352,0.3501,0.3485,0.3454,0.3433,0.3422,0.34,0.3366,0.3344,0.3308,0.3278,0.3219,0.3197,0.3162,0.316,0.3133,0.3154,0.3157,0.3156,0.3156,0.3153,0.3128,0.3128,0.3127,0.3127,0,0.3519,0.3514,0.3485,0.3453,0.3429,0.3404,0.3378,0.3362,0.3346,0.3322,0.3285,0.3262,0.3216,0.3179,0.3142,0.3124,0.3121,0.3121,0.3112,0.3112,0.3118,0.3112,0.3193,0.3122,0.3122,0.3123,0.3123,0.3123,0.3478,0.3453,0.3428,0.3395,0.3376,0.3352,0.3326,0.3311,0.328,0.3243,0.3237,0.3197,0.3169,0.312,0.3101,0.3068,0.3074,0.3062,0.3058,0.3055,0.3052,0.3126,0.3061,0.3062,0.3062,0.3062,0.3062,0,0.3417,0.3401,0.3371,0.3336,0.331,0.3314,0.3286,0.3263,0.3228,0.3203,0.3174,0.3131,0.3095,0.3072,0.3035,0.3013,0.3011,0.3003,0.3003,0.2998,0.305,0.306,0.3006,0.3006,0.3006,0.3006,0.3006,0.3006,0.3382,0.334,0.3332,0.328,0.3263,0.3225,0.3209,0.3186,0.3166,0.3118,0.3089,0.3075,0.3049,0.3011,0.2977,0.2971,0.2956,0.2948,0.2942,0.2989,0.2995,0.3001,0.301,0.2946,0.2946,0.2893,0.2892,0.2892]}]]